Orbital Elements at Epoch 2459200.5 (2020-Dec-17.0) TDB
Reference: JPL 32 (heliocentric ecliptic J2000)
Element | Value | Uncertainty (1-sigma) | Units |
e | .0686998681620497 | 3.6639e-08 | |
a | 3.059364212985107 | 1.7873e-08 | au |
q | 2.849186294893337 | 1.0707e-07 | au |
i | 8.567997723207764 | 3.4137e-06 | deg |
node | 261.3342508716449 | 3.3344e-05 | deg |
peri | 17.50602170803937 | 5.2872e-05 | deg |
M | 84.36901258929478 | 3.9612e-05 | deg |
tp | 2458742.436522522130 (2019-Sep-15.93652252) | 0.00021635 | TDB |
period | 1954.542868656932 5.35 | 1.7128e-05 4.689e-08 | d yr |
n | .184186290192435 | 1.614e-09 | deg/d |
Q | 3.269542131076876 | 1.9101e-08 | au |
|
| | Orbit Determination Parameters
Additional Information
|